Location: Bilsen
(53.7722°N, 9.8765°E)
Time: 15:10:47
(UTC+00:00)

ADEOS - Pass Details

Date: 18 February 2020
Orbit: 793 x 794 km, 98.9° (Epoch: 27 March)

Event Time Altitude Azimuth Distance (km) Brightness Sun altitude
Rises 03:47:27 0° 15° (NNE) 3,310 7.2 -25.2°
Reaches altitude 10° 03:49:48 10° 15° (NNE) 2,376 6.4 -24.9°
Maximum altitude 03:55:03 82° 289° (WNW) 810 3.4 -24.1°
Enters shadow 03:56:20 53° 210° (SSW) 977 3.7 -23.9°
